Alamo, Nevada Weather observations

Data are for observation ending at time listed.
 Day   Time    Ave.   Ave.  Ave.  Vector   Max.   Stn.    Total    Solar   Ave.  
  of    of     Air    Rel.  Wind   Wind    Wind   Baro.  Precip.   Rad.    Soil  
Year   Day     Temp.  Hum.  Speed  Dir.    Gust   Pres.                    Temp. 
2014   (PST)    F      %     mph   deg.    mph     mb.     in.     W/m2     F   
------------------------------------------------------------------------------
 108    3:50   51.8    47    1.2    45      2.0   891.5    0.00       0    59.4
 108    4:00   50.9    48    1.1    20      2.1   891.4    0.00       0    59.3
 108    4:10   50.9    45    2.0    21      3.9   891.4    0.00       0    59.1
 108    4:20   50.6    43    2.0    32      3.3   891.5    0.00       0    59.0
 108    4:30   51.0    41    0.7   352      1.8   891.5    0.00       0    58.8
 108    4:40   50.5    42    0.3   237      1.0   891.5    0.00       0    58.6
 108    4:50   50.0    42    0.8    11      2.2   891.6    0.00       0    58.5
 108    5:00   49.9    44    0.8    12      2.5   891.7    0.00       0    58.4
 108    5:10   49.7    43    0.8   356      1.7   891.7    0.00       0    58.2
 108    5:20   49.7    44    0.2    59      1.2   891.8    0.00       7    58.1
 108    5:30   49.7    44    1.2   338      3.2   891.9    0.00      16    57.9
 108    5:40   50.2    41    1.8    15      3.0   892.0    0.00      28    57.8
 108    5:50   50.3    44    1.4    22      3.2   892.2    0.00      37    57.8
 108    6:00   50.6    44    0.7    30      1.6   892.3    0.00      46    57.7
 108    6:10   50.8    46    0.2   204      1.3   892.3    0.00      63    57.7
 108    6:20   51.0    44    0.5   227      1.3   892.4    0.00      68    57.7
 108    6:30   51.7    43    0.4   293      1.2   892.5    0.00      68    57.7
 108    6:40   51.9    45    1.1    31      2.4   892.6    0.00      75    57.7
 108    6:50   51.8    43    2.5    18      3.8   892.7    0.00      72    57.7
 108    7:00   52.5    41    1.9   355      3.6   892.7    0.00      82    57.6
 108    7:10   53.9    38    2.2     1      3.8   892.7    0.00      91    57.6
 108    7:20   54.9    38    1.7     9      3.2   892.7    0.00      96    57.6
 108    7:30   56.8    36    2.0   351      4.2   892.7    0.00      83    57.6
 108    7:40   59.2    36    0.8   359      3.5   892.8    0.00      83    57.7
 108    7:50   60.9    34    0.3   295      1.5   892.8    0.00      89    57.7
 108    8:00   62.7    31    1.4    34      2.9   892.9    0.00     112    57.8
 108    8:10   64.0    30    1.5    20      2.9   893.0    0.00     127    59.5
 108    8:20   66.7    25    0.6    64      3.1   893.0    0.00     142    60.4
 108    8:30   68.5    23    2.1   199      3.9   892.9    0.00     131    60.4
 108    8:40   69.6    22    3.0   194      6.3   892.9    0.00     147    60.4
 108    8:50   70.1    21    3.2   176     10.0   893.0    0.00     163    60.3
 108    9:00   70.2    20    2.2   161      9.9   893.0    0.00     174    60.2
 108    9:10   70.4    20    2.2   171      7.7   893.0    0.00     173    60.1
 108    9:20   69.6    21    2.7   175     11.1   893.0    0.00     222    60.0
 108    9:30   69.6    21    2.1   171      6.8   893.0    0.00     293    59.9
 108    9:40   70.1    20    2.6   174      9.3   893.0    0.00     360    59.9
 108    9:50   70.6    21    3.1   182      9.3   893.0    0.00     369    60.0
 108   10:00   71.2    20    2.3   170      8.3   893.1    0.00     411    60.2
 108   10:10   71.7    19    2.6   168      7.6   893.1    0.00     444    60.4
 108   10:20   72.1    20    2.4   167      9.3   893.1    0.00     504    60.6
 108   10:30   72.8    19    2.4   167     10.4   893.1    0.00     565    60.9
 108   10:40   73.1    19    2.1   168      5.7   892.9    0.00     584    61.3
 108   10:50   73.8    20    2.0   164      6.4   892.8    0.00     537    61.7
 108   11:00   74.9    20    2.5   160      7.5   892.8    0.00     675    62.1
 108   11:10   74.3    19    2.8   171      7.5   892.7    0.00     573    62.5
 108   11:20   74.3    20    2.9   172      9.6   892.7    0.00     569    62.9
 108   11:30   74.5    20    2.7   167     11.5   892.6    0.00     609    63.1
 108   11:40   74.6    20    3.1   181     10.7   892.6    0.00     559    63.3
 108   11:50   74.3    20    2.6   171      9.0   892.6    0.00     495    63.5
 108   12:00   73.6    20    3.0   167     10.4   892.6    0.00     451    63.7
 108   12:10   73.4    20    2.8   170     11.3   892.7    0.00     432    63.8
 108   12:20   73.3    20    2.9   168      9.4   892.7    0.00     432    63.8
 108   12:30   73.0    20    2.9   172      9.5   892.6    0.00     432    63.9
 108   12:40   73.2    20    3.1   171     11.7   892.6    0.00     451    63.9
 108   12:50   73.5    19    2.6   173     11.6   892.6    0.00     473    63.9
 108   13:00   73.5    18    3.1   171     11.0   892.5    0.00     470    64.0
 108   13:10   73.5    18    3.3   166      9.9   892.4    0.00     457    64.0
 108   13:20   73.1    19    3.6   181     10.5   892.4    0.00     436    64.1
 108   13:30   73.1    20    3.4   180     11.6   892.3    0.00     447    64.1
 108   13:40   73.2    20    2.8   172      7.8   892.2    0.00     397    64.2
 108   13:50   73.0    19    2.6   168     10.2   892.2    0.00     353    64.2
 108   14:00   72.8    19    2.7   175      9.3   892.1    0.00     318    64.2
 108   14:10   72.7    20    2.8   177      8.7   892.0    0.00     320    64.1
 108   14:20   72.4    20    3.3   181      9.9   891.9    0.00     340    64.0
 108   14:30   72.5    20    3.3   180     10.4   891.8    0.00     358    64.0
 108   14:40   72.5    19    2.7   179     12.0   891.8    0.00     377    63.9
 108   14:50   72.8    19    2.3   165      7.7   891.7    0.00     396    63.9
 108   15:00   73.0    19    2.8   173     10.0   891.6    0.00     470    63.9
 108   15:10   73.5    19    2.9   175      9.3   891.6    0.00     536    64.0
 108   15:20   73.5    20    4.4   184     10.2   891.5    0.00     602    64.3
 108   15:30   74.2    19    2.7   167     10.3   891.5    0.00     687    64.5
 108   15:40   75.0    18    3.4   180     10.6   891.4    0.00     694    64.8
 108   15:50   75.1    18    2.8   180     11.2   891.4    0.00     618    65.1
 108   16:00   74.3    18    3.2   186     10.8   891.4    0.00     497    65.2
 108   16:10   73.9    16    2.0   162      9.5   891.4    0.00     384    65.1
 108   16:20   72.8    17    3.3   172     11.5   891.4    0.00     321    64.9
 108   16:30   72.4    16    2.4   178      9.3   891.4    0.00     311    64.7
 108   16:40   72.3    17    2.9   181      8.5   891.4    0.00     306    64.4
 108   16:50   72.0    18    2.3   189      6.4   891.3    0.00     263    64.1
 108   17:00   71.6    17    3.0   179      7.8   891.3    0.00     203    63.9
 108   17:10   70.6    18    2.3   182      6.0   891.4    0.00     139    63.7
 108   17:20   70.2    18    2.2   186      6.3   891.4    0.00     113    63.4
 108   17:30   69.9    18    2.7   183      8.1   891.4    0.00     125    63.2
 108   17:40   69.6    17    2.4   186      5.6   891.4    0.00      81    62.9
 108   17:50   69.4    17    2.1   183      6.6   891.5    0.00     105    62.7
 108   18:00   68.8    18    2.3   186      5.7   891.6    0.00      54    62.4
 108   18:10   67.8    19    1.9   188      4.5   891.7    0.00      21    62.1
 108   18:20   67.0    20    1.8   186      5.0   891.8    0.00      10    61.8
 108   18:30   66.8    19    1.9   194      5.0   891.8    0.00       6    61.5
 108   18:40   66.2    21    2.0   192      5.5   891.9    0.00       0    61.2
 108   18:50   65.2    23    1.0   187      3.2   892.1    0.00       0    60.9
 108   19:00   65.6    21    1.3   182      4.0   892.2    0.00       0    60.7
 108   19:10   66.7    22    1.2   185      3.4   892.4    0.00       0    60.4
 108   19:20   65.9    23    1.5   188      4.5   892.6    0.00       0    60.2
 108   19:30   65.3    24    0.7   187      3.1   892.7    0.00       0    60.0
 108   19:40   65.5    24    0.5   160      2.4   892.8    0.00       0    59.8
 108   19:50   65.1    25    1.5   186      3.4   892.9    0.00       0    59.6
 108   20:00   64.1    27    1.2   204      2.8   893.0    0.00       0    59.4
 108   20:10   63.1    28    0.7   223      1.7   893.2    0.00       0    59.2
 108   20:20   62.0    30    0.0     0      0.0   893.3    0.00       0    59.1
 108   20:30   60.7    31    0.0     0      0.0   893.3    0.00       0    58.9
 108   20:40   59.6    34    0.0     0      0.0   893.4    0.00       0    58.8
 108   20:50   58.8    35    0.1   314      0.9   893.4    0.00       0    58.7
 108   21:00   58.5    36    0.3    10      1.1   893.4    0.00       0    58.6
 108   21:10   57.9    36    0.3    11      0.7   893.4    0.00       0    58.4
 108   21:20   56.8    38    0.5    58      1.5   893.5    0.00       0    58.2
 108   21:30   55.8    40    0.6   309      1.2   893.5    0.00       0    58.0
 108   21:40   55.2    39    0.1   311      0.7   893.5    0.00       0    57.8
 108   21:50   54.5    41    0.3    10      0.9   893.5    0.00       0    57.6
 108   22:00   53.9    42    0.3    32      1.5   893.5    0.00       0    57.4
 108   22:10   52.9    46    1.6     8      4.2   893.5    0.00       0    57.3
 108   22:20   52.6    43    1.7    20      4.3   893.6    0.00       0    57.0
 108   22:30   52.8    44    1.0   334      2.1   893.7    0.00       0    56.8
 108   22:40   52.3    44    0.1   265      1.0   893.7    0.00       0    56.6
 108   22:50   52.2    44    0.6   358      1.5   893.7    0.00       0    56.4
 108   23:00   52.2    43    0.1    50      1.3   893.7    0.00       0    56.3
 108   23:10   51.8    45    0.2   286      1.0   893.7    0.00       0    56.2
 108   23:20   51.5    44    0.4   281      1.2   893.8    0.00       0    56.1
 108   23:30   51.7    45    0.1    22      0.9   893.9    0.00       0    56.0
 108   23:40   51.7    44    0.3   359      1.0   893.9    0.00       0    55.9
 108   23:50   51.5    45    0.9   277      2.0   893.9    0.00       0    55.8
 109    0:00   51.2    43    0.2   295      1.7   893.9    0.00       0    55.7
 109    0:10   51.3    44    0.2    12      1.0   893.8    0.00       0    55.6
 109    0:20   50.8    47    0.9    19      1.9   893.8    0.00       0    55.5
 109    0:30   50.5    48    1.2    30      1.9   893.9    0.00       0    55.4
 109    0:40   50.8    46    1.1    48      2.1   893.8    0.00       0    55.3
 109    0:50   50.7    48    1.0   289      2.0   893.9    0.00       0    55.2
 109    1:00   50.4    46    0.5   318      1.2   893.8    0.00       0    55.1
 109    1:10   50.2    46    0.8    20      1.3   893.9    0.00       0    55.0
 109    1:20   50.0    46    1.0    41      2.1   894.0    0.00       0    54.9
 109    1:30   49.9    48    0.6    21      1.5   894.0    0.00       0    54.8
 109    1:40   49.6    48    0.2   292      0.9   894.1    0.00       0    54.6
 109    1:50   49.5    49    0.3    43      1.1   894.1    0.00       0    54.6
 109    2:00   49.3    51    0.4    48      1.6   894.1    0.00       0    54.5
 109    2:10   49.2    51    1.1   312      1.6   894.2    0.00       0    54.4
 109    2:20   48.9    50    0.8   319      2.0   894.3    0.00       0    54.2
 109    2:30   48.8    49    1.1    32      2.2   894.4    0.00       0    54.1
 109    2:40   48.6    50    0.2   339      1.4   894.5    0.00       0    54.0
 109    2:50   47.9    52    0.2   268      2.3   894.5    0.00       0    53.9
 109    3:00   47.4    52    0.8   340      2.2   894.6    0.00       0    53.8
 109    3:10   46.9    54    0.9     2      2.3   894.8    0.00       0    53.6
 109    3:20   46.7    55    0.5     7      1.7   894.8    0.00       0    53.4
 109    3:30   46.3    55    1.0   351      2.2   895.1    0.00       0    53.3
 109    3:40   45.9    56    0.9   349      1.8   895.1    0.00       0    53.1

Return to Alamo, Nevada graphs page.


Western Regional Climate Center,wrcc@dri.edu